Погода в Коленковцах

Украина / Черновицкая область     48°24′46″N   26°07′45″E
темп.,
°C
ветер,
м/с
пор.,
м/с
влажн.,
%
обл.,
%
осадки,
мм/ч
давл.,
гПа
погр.,
м
12 августа, пт
пт1200:00+16ссз228169 0.0 101911
03:00+16сз228399 0.0 102042
06:00+16зсз3689100 0.3 1019164
09:00+19сз3576100 0.3 1019435
12:00+21ссз577795 1.2 1019660
15:00+21с4680100 1.9 1018331
18:00+20с598360 0.8 1017411
21:00+18с2491100 1.4 101792
13 августа, сб
сб1300:00+17ссз229477 0.0 101718
03:00+16сз22965 0.0 101620
06:00+17сз3595100 0.0 1015136
09:00+18сз3692100 0.0 1014280
12:00+22сз3479100 0.0 1013722
15:00+26ссв455885 0.6 10111394
18:00+26с3457100 0.6 10101143
21:00+20сз358695 1.3 100991
14 августа, вс
вс1400:00+18сз3497100 5.9 1010100
03:00+17сз3498100 6.1 100990
06:00+17сз3498100 0.3 100997
09:00+19сз4589100 0.4 1009295
12:00+23с3467100 0.0 1009772
15:00+24ссв4567100 0.0 1008721
18:00+27с34545 0.0 10071284
21:00+18ююв2491100 2.4 100874
15 августа, пн
пн1500:00+18вюв118851 0.6 100811
03:00+17ссв1188100 0.8 100711
06:00+17сз1188100 0.3 100711
09:00+20ссз1174100 0.3 1007187
12:00+25сз2156100 0.0 1007741
15:00+28ссв1147100 0.0 10061239
18:00+28св114661 0.0 10061289
21:00+21зюз22715 0.1 100624
16 августа, вт
вт1600:00+19зюз226971 0.0 100711
03:00+18зсз22725 0.1 100611
06:00+17з11845 0.0 100711
09:00+22з246728 0.0 1008305
12:00+27зсз23465 0.0 10071052
15:00+30з25385 0.0 10072141
18:00+30зсз4639100 0.0 10061891
21:00+19юв2288100 3.4 100930